This is the latest recevied weather packets stored in our database for station/object M0OAB-1. If no packets are shown the sender has not sent any weather packets the latest 10 day(s).
| Time | Temp. | Humidity | Pressure | Rain* | Wind** | Luminosity | Snow |
|---|---|---|---|---|---|---|---|
| 1777395965 | 15° C | 37% | 1009.9 hPa | 0 mm | - | - | - |
| 1777395725 | 15° C | 36% | 1009.9 hPa | 0 mm | - | - | - |
| 1777395125 | 15° C | 35% | 1009.7 hPa | 0 mm | - | - | - |
| 1777394765 | 15° C | 36% | 1009.8 hPa | 0 mm | - | - | - |
| 1777393325 | 15.56° C | 39% | 1009.7 hPa | 0 mm | - | - | - |
| 1777393206 | 15.56° C | 39% | 1009.6 hPa | 0 mm | - | - | - |
| 1777393085 | 15.56° C | 40% | 1009.7 hPa | 0 mm | - | - | - |
| 1777392125 | 15.56° C | 41% | 1009.8 hPa | 0 mm | - | - | - |
| 1777390925 | 15.56° C | 38% | 1009.7 hPa | 0 mm | - | - | - |
| 1777390445 | 16.11° C | 41% | 1009.9 hPa | 0 mm | - | - | - |
| 1777389485 | 16.11° C | 41% | 1009.8 hPa | 0 mm | - | - | - |
| 1777389005 | 16.11° C | 42% | 1009.8 hPa | 0 mm | - | - | - |
| 1777388885 | 16.11° C | 42% | 1009.8 hPa | 0 mm | - | - | - |
| 1777388045 | 16.11° C | 41% | 1010 hPa | 0 mm | - | - | - |
| 1777387925 | 16.11° C | 41% | 1010 hPa | 0 mm | - | - | - |
| 1777387325 | 16.67° C | 40% | 1009.9 hPa | 0 mm | - | - | - |
| 1777386845 | 16.11° C | 40% | 1010 hPa | 0 mm | - | - | - |
| 1777386484 | 16.11° C | 40% | 1010.2 hPa | 0 mm | - | - | - |
| 1777386005 | 16.11° C | 41% | 1010.2 hPa | 0 mm | - | - | - |
| 1777384925 | 16.11° C | 40% | 1010.5 hPa | 0 mm | - | - | - |
| 1777384805 | 16.11° C | 40% | 1010.4 hPa | 0 mm | - | - | - |
| 1777382645 | 16.67° C | 44% | 1010.3 hPa | 0 mm | - | - | - |
| 1777382405 | 16.11° C | 44% | 1010.5 hPa | 0 mm | - | - | - |
| 1777382165 | 16.67° C | 45% | 1010.5 hPa | 0 mm | - | - | - |
| 1777381804 | 16.67° C | 44% | 1010.6 hPa | 0 mm | - | - | - |
* Rain latest hour (hover to see other rain measurements)
** Current wind speed in m/s (hover to see current wind gust speed)